Terminal Aerodrome Forecast
Issued by NWS

Home | Current Version | Previous Version | Text Only | Print | Product List | Glossary On
Versions: 1 2 3 4 5 6 7 8 9 10 11 12 13 14 15 16 17 18 19 20 21
000
FTUS41 KGYX 310855 AAA
TAFRKD
TAF AMD
KRKD 310855Z 3109/0106 34018G30KT 5SM -SN OVC030
     FM311000 34018G28KT 4SM -SN BLSN OVC020
     FM311300 33020G30KT P6SM -SHSN BKN035
     FM312100 32018G30KT P6SM SCT050
     FM010100 32010KT P6SM SKC
      AMD LTD TO CLD VIS AND WIND=

USA.gov is the U.S. government's official web portal to all federal, state and local government web resources and services.